sat.trackr.live / text

‹ back to catalog

KUIPER-00370

NORAD 68919 · 2026-098A

PAYLOAD ACTIVE UNKNOWN

§ Identity

Operator
Country
US
Launch date
2026-04-30
Launch site
FRGUI
Launch vehicle
Mass (kg)
RCS (m²)

External: N2YO · Heavens-Above · Gunter

§ Orbital elements

Epoch: 2026-05-24T12:10:16.670496Z

Period
94.08 min
Inclination
51.8727°
Eccentricity
0.0015293
Mean motion
15.30642553 rev/d
Perigee alt
463.4 km
Apogee alt
484.4 km
Semi-major
6,852.0 km
B*
-2.2309e-4
RAAN
182.2803°
Arg perigee
68.9168°
Mean anomaly
291.3450°
Rev number
370

§ Raw data

KUIPER-003701 68919U 26098A   26144.50713739 -.00007095  00000+0 -22309-3 0  99912 68919  51.8727 182.2803 0015293  68.9168 291.3450 15.30642553  3705

JSON: /api/v1/satellites/68919 · /tle

For live sub-satellite position, see the globe view (requires WebGL).

§ Visibility from observer

Set your observer location to see the next 7 days of passes ≥ 10°. The values pass through the URL so the page stays shareable.

No JS? Fill the form by hand. The geolocation button needs JavaScript.